Tracking 30995 objects as of 6-Jul-2025
HD Live streaming from Space Station
objects crossing your sky now

NOAA 16 DEB

Track NOAA 16 DEB now!
10-day predictions


NORAD ID: 41140
Int'l Code: 2000-055BX
Perigee: 647.6 km
Apogee: 692.6 km
Inclination: 98.9 °
Period: 98.0 minutes
Semi major axis: 7041 km
RCS: Unknown
Launch date: September 21, 2000
Source: United States (US)
Launch site: AIR FORCE WESTERN TEST RANGE (AFWTR)

Note: This is SATELLITE DEBRIS
Your satellite tracking list
Your tracking list is empty




NASA's NSSDC Master Catalog

Two Line Element Set (TLE):
1 41140U 00055BX  25185.30225789  .00015734  00000-0  26430-2 0  9994
2 41140  98.8519 356.8830 0031908 254.4325 105.3355 14.69407094501643
Source of the keplerian elements: AFSPC